This is the latest recevied weather packets stored in our database for station/object KF6YUA. If no packets are shown the sender has not sent any weather packets the latest 10 day(s).
| Time | Temp. | Humidity | Pressure | Rain* | Wind** | Luminosity | Snow |
|---|---|---|---|---|---|---|---|
| 1777341929 | 15° C | 69% | 1018.9 hPa | 0 mm | - | 28 W/m² | - |
| 1777341626 | 15° C | 69% | 1019.2 hPa | 0 mm | - | 28 W/m² | - |
| 1777341321 | 15° C | 68% | 1019.1 hPa | 0 mm | - | 29 W/m² | - |
| 1777341019 | 15.56° C | 66% | 1018.9 hPa | 0 mm | - | 31 W/m² | - |
| 1777340716 | 15.56° C | 65% | 1019 hPa | 0 mm | - | 32 W/m² | - |
| 1777340415 | 16.11° C | 64% | 1019.2 hPa | 0 mm | - | 35 W/m² | - |
| 1777340111 | 16.11° C | 61% | 1019.1 hPa | 0 mm | - | 37 W/m² | - |
| 1777339808 | 16.67° C | 60% | 1018.9 hPa | 0 mm | - | 45 W/m² | - |
| 1777339506 | 16.67° C | 58% | 1018.7 hPa | 0 mm | - | 73 W/m² | - |
| 1777339203 | 17.22° C | 57% | 1019.1 hPa | 0 mm | - | 104 W/m² | - |
| 1777338901 | 17.22° C | 56% | 1019.1 hPa | 0 mm | - | 109 W/m² | - |
| 1777338597 | 17.22° C | 56% | 1019 hPa | 0 mm | - | 99 W/m² | - |
| 1777338295 | 17.22° C | 57% | 1019.1 hPa | 0 mm | - | 103 W/m² | - |
| 1777337991 | 17.22° C | 58% | 1019 hPa | 0 mm | - | 102 W/m² | - |
| 1777337688 | 17.78° C | 59% | 1019.1 hPa | 0 mm | - | 116 W/m² | - |
| 1777337385 | 17.22° C | 60% | 1019 hPa | 0 mm | - | 170 W/m² | - |
| 1777337082 | 17.22° C | 60% | 1019 hPa | 0 mm | - | 179 W/m² | - |
| 1777336781 | 17.22° C | 60% | 1018.8 hPa | 0 mm | - | 170 W/m² | - |
| 1777336479 | 17.22° C | 61% | 1018.8 hPa | 0 mm | - | 217 W/m² | - |
| 1777336176 | 17.22° C | 61% | 1018.8 hPa | 0 mm | - | 202 W/m² | - |
| 1777335873 | 17.22° C | 60% | 1018.6 hPa | 0 mm | - | 204 W/m² | - |
| 1777335570 | 16.67° C | 61% | 1018.7 hPa | 0 mm | - | 263 W/m² | - |
| 1777335267 | 17.22° C | 60% | 1018.8 hPa | 0 mm | - | 153 W/m² | - |
| 1777334965 | 17.22° C | 60% | 1018.8 hPa | 0 mm | - | 148 W/m² | - |
| 1777334662 | 17.22° C | 59% | 1018.8 hPa | 0 mm | - | 194 W/m² | - |
* Rain latest hour (hover to see other rain measurements)
** Current wind speed in m/s (hover to see current wind gust speed)